STARLINK-31953, 59898

Orbit data source: Space-Track

STARLINK-31953, 59898 is a payload satellite owned by SpaceX/Seattle (US) in LEO that was launched on Tue, 28 May 2024 UTC via an FALCON 9 launch vehicle from the Air Force Eastern Test Range (AFETR). Payload-class satellites include a variety of spacecraft equipped with specific instruments for various scientific and technological missions. These include communications satellites like Starlink; space stations such as the ISS; scientific satellites like the Hubble; Earth observation satellites from companies like Planet Labs, Umbra, and HawkEye 360; GPS; miniature CubeSats for education and research; and military/defense satellites.

Loading next visibility...
Identifier
59898, 2024-100P
Orbit
LEO
Country
Flag of USUS
Related business
Manufacturer
SpaceX/Seattle
Mission
Operational Commercial Communications
Bus & Motor
STARLINK V2M, Unknown motor
Mass
730 kg wet, ~700 kg dry
Launch date (UTC)
2024-05-28 (2 years ago)
Launch vehicle
FALCON 9
Launch site
Air Force Eastern Test Range (AFETR)
Object type
Payload
Rocket body
Debris
Shape & HBR
Box + 2 Pan, 17.7 m
Radar Cross Section
33.884 m², Large (>1 m²)

Expand to show TLE details & history
Last TLE update: 12 hours ago

TLE from 12 hours ago
0 STARLINK-31953
1 59898U 24100P   26126.14738065  .00000653  00000-0  33268-4 0  9997
2 59898  43.0028 157.5041 0001360 271.2383  88.8313 15.27578275109984
Epoch: 2026-05-06T03:32Z
TLE epoch observation values (Epoch: 2026-05-06T03:32:13.688Z)
Latitude
Longitude
-119.56497°
Altitude
482.811 km
Speed
7.626 km/s
True Right ascension
10h 30m 00s
True Declination
0° 00' 00"
Sunlit
Object was in full shadow at epoch
Visualization orbit readout
Latitude
Unknown
Longitude
Unknown
Altitude
Unknown
Speed
Unknown
Apparent Right ascension
Unknown
Apparent Declination
Unknown
Sunlit
N/A
Visualization observer readout
Local Sidereal Time
23:15:20
Azimuth
Unknown
Elevation
Unknown
Doppler factor
Unknown
Orbital elements
Apogee altitude
485.932 km
Perigee altitude
484.066 km
Semi-major axis
6,863.136 km
Eccentricity
0.00014
Inclination
43.0028°
RAAN
157.5041°
Arg. of periapsis
271.2383°
True anomaly
88.84688°
Mean anomaly
88.8313°
Eccentric anomaly
88.83909°
Mean motion
3.81733 °/min
Orbital period
94.31 mins
BSTAR
0.000033268
Loading maneuver chart data...
Computing Atmospheric mass density...
Loading historical data...
Loading historical data...
Loading historical data...
Loading historical data...
Loading historical data...
Loading historical data...
Loading historical data...

Documentation

Showing up to 5 results
|